Погода в Чанкае

Турция     39°53′28″N   32°51′39″E
темп.,
°C
ветер,
м/с
пор.,
м/с
влажн.,
%
обл.,
%
осадки,
мм/ч
давл.,
гПа
погр.,
м
26 июня, вс
вс2600:00+12сз22765 0.0 101225
03:00+11сз12805 0.0 101211
06:00+11зсз227913 0.0 101318
09:00+16ссз56585 0.0 10121022
12:00+19ссз7752100 0.0 10121368
15:00+17ссз685915 0.0 10131077
18:00+18ссз686113 0.0 10131096
21:00+14ссз34745 0.0 101481
27 июня, пн
пн2700:00+12с228216 0.0 101421
03:00+11ссз22877 0.0 101418
06:00+11ссз118730 0.0 101419
09:00+15зсз2566100 0.1 1013704
12:00+18з5656100 0.0 10121302
15:00+16ссз3573100 0.6 1013414
18:00+13ююз1194100 5.3 1013144
21:00+13юз2495100 7.9 1013283
28 июня, вт
вт2800:00+13юз239693 0.9 1012174
03:00+13зюз1294100 0.9 1011138
06:00+14с009166 0.1 101150
09:00+17с126827 0.4 1011841
12:00+20с235180 1.6 10101541
15:00+22с1243100 2.0 10091674
18:00+21зюз334895 0.0 1009898
21:00+19с345984 0.1 1010119
29 июня, ср
ср2900:00+16ссз237349 0.1 101181
03:00+15ссз237694 0.1 101185
06:00+14с227927 0.1 101264
09:00+18с236272 0.1 1012717
12:00+20ююв125598 0.0 1011880
15:00+23ю12428 0.1 10091763
18:00+21с565499 0.1 1010547
21:00+18св236710 0.1 101141
30 июня, чт
чт3000:00+16ссв22774 0.0 101218
03:00+14с22813 0.0 101215
06:00+14ссв11804 0.0 101212
09:00+19с12570 0.0 1012651
12:00+24с22422 0.0 10111869
15:00+25ссз533999 0.0 10102186
18:00+23ссв235283 0.0 1010216
21:00+20с35661 0.0 101197